Location: Fours
(44.3167°N, 6.7000°E)
Time: 05:13:59
(UTC+00:00)

Cosmos 44 Rocket - Pass Details

Date: 30 November 2020
Orbit: 638 x 751 km, 65.1° (Epoch: 24 January)

Event Time Altitude Azimuth Distance (km) Brightness Sun altitude
Rises 18:35:45 0° 324° (NW) 3,174 7.1 -28.0°
Reaches altitude 10° 18:38:07 10° 324° (NW) 2,259 6.3 -28.4°
Enters shadow 18:42:14 57° 314° (NW) 883 3.9 -29.1°
